EW7207 Weather Reports


time (UTC)temp
F
wind
direction
speed
knots
gust
knots
rain 1hr
in
rain 24hr
in
rain mn
in
humidity
%
barometer
mb
20260506222137 64 247 2.6 3.5 0.00 0.12 0.12 85 1042.3
20260506215235 63 247 1.7 2.6 0.00 0.12 0.12 86 1042.1
20260506214237 63 270 5.2 7.0 0.00 0.12 0.12 87 1042.0
20260506213335 62 263 1.7 2.6 0.00 0.12 0.12 88 1042.0
20260506212336 62 280 3.5 5.2 0.00 0.12 0.12 88 1041.8
20260506211336 62 292 1.7 3.5 0.00 0.12 0.12 88 1042.0
20260506210435 62 292 0.0 0.9 0.00 0.12 0.12 88 1042.0
20260506205438 62 284 1.7 3.5 0.00 0.12 0.12 88 1041.9
20260506204436 62 244 3.5 7.0 0.00 0.12 0.12 88 1041.9
20260506203435 62 246 7.0 9.6 0.00 0.12 0.12 87 1041.7
20260506202437 62 242 8.7 11.3 0.00 0.12 0.12 88 1041.7
20260506201435 62 243 6.1 7.8 0.00 0.12 0.12 88 1041.6
20260506200438 62 243 5.2 7.0 0.00 0.12 0.12 89 1041.7
20260506195437 61 236 5.2 7.8 0.00 0.12 0.12 89 1041.8
20260506194438 61 240 7.0 9.6 0.00 0.12 0.12 89 1041.9
20260506193437 61 226 4.3 7.8 0.00 0.12 0.12 89 1042.1
20260506192435 61 235 4.3 7.0 0.00 0.12 0.12 89 1042.1
20260506185538 60 255 7.8 9.6 0.00 0.12 0.12 92 1042.4
20260506184537 60 219 6.1 8.7 0.00 0.12 0.12 92 1042.6
20260506184437 60 228 3.5 6.1 0.00 0.12 0.12 92 1042.5
20260506183438 60 254 7.0 10.4 0.01 0.12 0.12 89 1042.5
20260506182536 60 243 7.8 10.4 0.01 0.12 0.12 88 1042.5
20260506180634 60 234 7.0 12.2 0.01 0.12 0.12 90 1042.6
20260506175637 60 236 10.4 13.0 0.02 0.12 0.12 89 1042.6
20260506174637 60 237 10.4 15.6 0.02 0.12 0.12 89 1042.5
20260506173636 61 226 10.4 14.8 0.02 0.12 0.12 88 1042.7
20260506172638 61 226 7.8 11.3 0.02 0.11 0.11 88 1042.8
20260506170635 61 234 9.6 13.0 0.03 0.11 0.11 88 1042.9
20260506164738 60 235 7.0 10.4 0.04 0.10 0.10 89 1043.0
20260506163837 60 213 7.8 12.2 0.05 0.10 0.10 89 1042.6
20260506162936 60 215 5.2 8.7 0.05 0.09 0.09 88 1042.5
20260506161936 61 236 10.4 14.8 0.06 0.09 0.09 88 1042.7
20260506160935 61 215 9.6 15.6 0.06 0.08 0.08 87 1043.3
20260506155938 61 228 5.2 7.8 0.05 0.07 0.07 88 1043.7
20260506154937 61 224 12.2 16.5 0.05 0.06 0.06 88 1043.9
20260506153937 61 221 8.7 11.3 0.05 0.05 0.05 88 1044.1
20260506152939 61 219 7.0 12.2 0.04 0.04 0.04 87 1044.1
20260506151936 62 236 5.2 7.0 0.03 0.03 0.03 86 1044.1
20260506150936 62 217 5.2 7.0 0.02 0.02 0.02 85 1043.7
20260506150035 62 225 5.2 7.0 0.02 0.02 0.02 82 1043.9
20260506145052 63 226 7.8 11.3 0.01 0.01 0.01 80 1043.8
20260506144135 63 221 7.8 10.4 0.00 0.00 0.00 78 1044.0
20260506143136 64 236 11.3 15.6 0.00 0.00 0.00 75 1044.2
20260506142236 65 246 8.7 14.8 0.00 0.00 0.00 73 1044.2
20260506141238 66 228 10.4 14.8 0.00 0.00 0.00 72 1043.9
20260506140237 65 226 9.6 13.0 0.00 0.00 0.00 73 1043.9
20260506135336 65 226 7.8 12.2 0.00 0.00 0.00 73 1043.7
20260506133435 65 255 9.6 13.9 0.00 0.00 0.00 72 1044.0
20260506132436 65 225 11.3 16.5 0.00 0.00 0.00 72 1044.1
20260506131435 65 225 7.0 9.6 0.00 0.00 0.00 72 1044.2
20260506130535 65 232 8.7 14.8 0.00 0.00 0.00 72 1044.2
20260506125536 65 232 7.0 10.4 0.00 0.00 0.00 72 1044.2
20260506124539 65 223 8.7 11.3 0.00 0.00 0.00 72 1044.1
20260506122537 65 237 9.6 13.0 0.00 0.00 0.00 73 1043.7
20260506121635 64 215 7.8 12.2 0.00 0.00 0.00 73 1044.1
20260506120635 64 235 7.8 12.2 0.00 0.00 0.00 73 1044.1
20260506115636 64 223 8.7 13.0 0.00 0.00 0.00 73 1044.0
20260506114636 64 223 9.6 12.2 0.00 0.00 0.00 74 1043.7
20260506113637 64 212 9.6 13.0 0.00 0.00 0.00 74 1043.9
20260506111736 64 218 8.7 10.4 0.00 0.00 0.00 74 1044.1
20260506110835 64 218 8.7 13.9 0.00 0.00 0.00 74 1044.1
20260506105837 64 219 9.6 13.0 0.00 0.00 0.00 74 1044.0
20260506104835 64 217 9.6 15.6 0.00 0.00 0.00 74 1043.7
20260506104738 64 204 9.6 14.8 0.00 0.00 0.00 74 1043.7
20260506103738 64 218 10.4 13.0 0.00 0.00 0.00 74 1043.8
20260506102736 64 221 7.8 10.4 0.00 0.00 0.00 74 1043.6
20260506100736 64 203 7.0 9.6 0.00 0.00 0.00 74 1043.9
20260506095738 64 223 7.0 13.0 0.00 0.01 0.00 74 1044.0
20260506094835 64 224 7.0 13.0 0.00 0.01 0.00 74 1043.7
20260506093835 65 223 10.4 15.6 0.00 0.01 0.00 73 1043.9
20260506092838 65 214 4.3 9.6 0.00 0.01 0.00 73 1043.7
20260506091935 65 221 3.5 6.1 0.00 0.01 0.00 72 1043.7
20260506090935 65 242 1.7 5.2 0.00 0.05 0.00 71 1043.9
20260506085937 65 218 4.3 7.8 0.00 0.09 0.00 71 1043.9
20260506084936 65 216 7.0 9.6 0.00 0.09 0.00 71 1043.9
20260506083937 66 213 7.8 11.3 0.00 0.09 0.00 70 1044.1
20260506083035 66 223 1.7 3.5 0.00 0.09 0.00 70 1044.1
20260506082036 66 200 5.2 7.8 0.00 0.09 0.00 70 1044.1
20260506073138 66 221 7.8 13.0 0.00 0.09 0.00 66 1044.1
20260506071139 67 213 7.8 10.4 0.00 0.09 0.00 65 1044.2
20260506070235 67 227 9.6 13.9 0.00 0.09 0.00 64 1044.2
20260506062337 67 222 6.1 8.7 0.00 0.09 0.00 61 1044.7
20260506061337 67 214 7.0 9.6 0.00 0.09 0.00 62 1044.7
20260506060435 67 221 7.8 10.4 0.00 0.09 0.00 61 1044.8
20260506050537 68 228 6.1 7.8 0.00 0.09 0.00 60 1045.1
20260506044636 68 226 9.6 14.8 0.00 0.09 0.00 59 1045.1
20260506041835 68 228 8.7 12.2 0.00 0.09 0.00 59 1045.0
20260506035850 68 227 11.3 15.6 0.00 0.09 0.09 59 1045.1
20260506034851 68 228 6.1 8.7 0.00 0.09 0.09 57 1045.1
20260506033850 68 196 7.0 9.6 0.00 0.09 0.09 56 1045.0
20260506032850 69 226 5.2 7.8 0.00 0.09 0.09 55 1044.9
20260506031849 69 209 7.0 12.2 0.00 0.09 0.09 53 1044.8
20260506030850 70 228 8.7 13.0 0.00 0.09 0.09 52 1045.0
20260506025851 70 196 4.3 7.0 0.00 0.09 0.09 50 1044.9
20260506023048 72 230 5.2 7.0 0.00 0.09 0.09 46 1045.0
20260506022050 72 226 5.2 7.8 0.00 0.09 0.09 45 1045.0
20260506021050 73 232 9.6 13.0 0.00 0.09 0.09 44 1044.8
20260506015149 73 226 7.0 10.4 0.00 0.09 0.09 44 1044.9
20260506014248 73 215 5.2 9.6 0.00 0.09 0.09 43 1044.8
20260506013251 74 226 7.8 10.4 0.00 0.09 0.09 42 1044.7
20260506012349 74 217 12.2 18.2 0.00 0.09 0.09 42 1044.6
20260506005451 74 212 5.2 8.7 0.00 0.09 0.09 43 1044.2
20260506004448 74 217 7.0 8.7 0.00 0.09 0.09 42 1044.2
20260506003450 75 222 9.6 13.0 0.00 0.09 0.09 41 1043.9
20260506002549 75 225 8.7 13.0 0.00 0.09 0.09 39 1043.7
20260506001550 75 220 7.0 9.6 0.00 0.09 0.09 38 1043.7
20260506000549 76 227 12.2 17.4 0.00 0.09 0.09 37 1043.8
20260505235649 76 227 8.7 12.2 0.00 0.09 0.09 36 1043.6
20260505234652 77 228 11.3 13.9 0.00 0.09 0.09 35 1043.5
20260505233748 77 230 10.4 13.9 0.00 0.09 0.09 35 1043.6
20260505232848 77 231 9.6 12.2 0.00 0.09 0.09 34 1043.5
20260505230851 78 224 11.3 17.4 0.00 0.09 0.09 32 1043.6
20260505225949 78 240 10.4 13.0 0.00 0.09 0.09 32 1043.3
20260505225048 79 241 12.2 17.4 0.00 0.09 0.09 31 1043.1
20260505224049 79 258 10.4 14.8 0.00 0.09 0.09 31 1043.3
20260505223052 79 227 13.9 19.1 0.00 0.09 0.09 32 1043.1